Temperature
20 20 19 19 19 19 19 20 20 21 21 21 21 21 20 19 18 17 17 16 16 15 15 15 15 15 15 14 14 14 14 14 14 14 13 13 13 13 13 13 13 13 12 12
19 19 19 19 19 19 19 19 20 20 20 21 20 19 19 19 17 17 16 16 15 15 15 15 15 14 14 14 14 14 14 14 13 13 13 13 13 13 13 13 12 12 12 12
19 19 18 18 19 19 19 19 20 20 20 20 20 19 18 18 17 17 16 16 15 15 15 14 14 14 14 14 14 14 14 13 13 13 12 12 12 12 12 12 12 12 12 12
18 18 17 20 20 19 19 19 19 19 19 19 18 18 17 17 16 16 16 15 15 15 14 14 14 14 14 14 14 13 13 13 13 12 12 12 12 12 12 12 12 12 12 12
17 17 18 19 18 18 18 18 18 18 18 17 17 17 17 16 15 15 15 15 15 15 14 14 14 14 13 13 13 13 13 13 13 12 12 12 12 12 11 11 11 11 11 11
16 16 17 18 18 17 18 18 17 17 17 16 17 18 18 15 14 14 14 14 14 14 14 14 14 13 13 13 13 13 13 12 12 12 12 12 12 11 11 11 11 11 11 11
16 16 17 17 16 16 17 17 16 15 15 15 16 17 15 14 14 14 14 14 14 14 14 14 13 13 13 13 12 12 12 12 12 12 12 12 11 11 11 11 10 10 10 10
16 16 16 15 15 16 16 15 15 14 14 14 14 14 13 13 13 13 13 13 13 13 13 13 13 13 12 12 12 12 12 11 11 11 11 11 11 11 11 10 10 10 10 10
16 16 15 14 14 13 13 14 13 13 13 13 13 13 12 12 12 12 12 12 12 13 12 12 12 12 12 12 12 11 11 11 11 11 11 10 10 10 10 10 10 9 9 9
14 15 14 13 12 12 12 12 12 12 12 12 12 12 11 12 12 12 12 12 12 12 12 12 12 12 11 11 11 11 11 10 10 10 10 10 10 10 10 9 9 9 9 9
14 14 13 12 12 12 11 11 11 11 11 11 11 11 11 11 11 11 11 11 11 11 11 11 11 11 11 11 10 10 10 10 10 10 9 9 9 9 9 9 9 9 9 8
14 14 14 13 12 11 11 11 10 10 10 10 10 10 10 10 10 10 10 10 10 10 10 10 10 10 10 10 10 10 9 9 9 9 9 9 8 8 9 9 9 8 8 8
12 11 11 11 11 11 10 10 10 10 10 10 10 10 9 9 9 9 9 9 10 10 10 10 10 10 9 9 9 9 9 9 9 9 8 8 8 8 8 8 8 8 8 8
10 10 10 10 10 10 9 9 9 9 9 9 9 9 9 9 9 9 9 9 9 9 9 9 9 9 9 9 9 8 8 8 8 8 8 8 8 7 7 7 7 7 7 7
9 9 9 9 9 9 9 9 9 9 9 9 9 9 9 8 8 8 8 8 8 9 9 9 9 9 8 8 8 8 8 8 8 8 8 7 7 7 7 7 6 7 6 6
9 9 8 9 8 8 8 8 8 8 8 8 8 8 8 8 8 8 8 8 8 8 8 8 8 8 8 8 8 8 8 8 7 7 7 7 7 7 6 6 6 6 6 6
8 8 8 8 8 8 8 8 8 8 8 8 8 8 8 8 8 8 8 8 7 7 7 7 7 7 7 7 7 7 7 7 7 7 7 6 6 6 6 6 5 5 6 6
8 8 8 8 8 8 8 8 8 8 8 7 7 7 7 7 7 7 7 7 7 7 7 7 7 7 7 7 7 7 7 7 7 6 6 6 6 5 5 5 5 5 5 5
8 7 7 7 7 7 7 7 7 7 7 7 7 7 7 7 7 7 7 7 6 6 6 6 6 6 6 6 6 6 6 6 6 6 6 6 5 5 5 5 4 4 4 4
7 7 7 7 7 7 7 7 7 7 7 7 6 6 6 6 6 6 6 6 6 6 6 6 6 6 6 6 6 6 5 5 5 5 5 5 5 5 5 4 4 4 4 4
6 6 6 6 6 6 6 6 6 6 6 6 6 6 6 6 5 5 5 5 5 5 5 5 5 5 5 5 5 5 5 5 5 5 5 5 4 4 4 4 4 4 3 3
6 6 6 6 6 5 6 6 6 6 5 5 5 5 5 5 5 5 5 5 5 5 5 5 5 5 5 5 5 5 5 5 4 4 4 4 4 4 4 3 3 3 3 3
6 5 5 5 5 5 5 5 5 5 5 5 5 5 4 4 4 4 4 4 4 4 4 4 4 4 4 4 4 4 4 4 4 4 4 3 3 3 3 3 3 3 3 3
5 5 5 5 4 4 4 4 4 4 4 4 4 4 4 4 4 4 4 4 4 3 3 3 4 4 4 4 3 3 3 3 3 3 3 3 3 3 3 3 2 2 2 2
4 4 4 4 4 4 4 4 4 3 3 3 3 3 3 3 3 3 3 3 3 3 3 3 3 3 3 3 3 3 3 3 3 3 2 2 2 2 2 2 2 2 2 2
4 4 3 3 3 3 3 3 3 3 3 3 3 3 3 3 3 3 2 2 2 2 2 2 2 2 2 2 2 2 2 2 2 2 2 2 2 2 2 2 2 2 1 1
3 3 3 3 3 3 3 3 3 2 2 2 2 2 2 2 2 2 2 2 2 2 2 2 1 2 1 1 1 2 2 2 2 2 1 1 1 1 1 1 1 1 1 1
Wind_Speed
11 9 8 11 12 12 14 15 14 14 13 12 10 8 7 5 4 4 4 5 6 6 5 5 5 4 4 4 5 6 6 7 7 7 6 6 5 5 5 5 6 6 6 6
10 9 10 13 14 14 15 15 16 16 15 11 8 7 6 5 4 4 5 5 5 5 5 5 5 4 4 4 5 5 6 7 6 6 6 6 5 5 5 5 5 5 6 6
10 8 9 12 13 14 13 12 13 14 12 9 7 6 6 5 5 5 5 5 5 5 6 5 5 5 5 5 5 5 6 6 6 6 6 6 5 5 5 5 5 5 6 6
8 7 11 5 1 6 9 9 9 10 9 8 8 8 6 5 5 5 5 5 5 5 5 5 5 5 4 4 4 5 6 6 6 7 7 6 5 5 6 5 5 5 5 6
7 10 10 6 3 3 7 8 5 6 7 7 7 6 5 3 4 5 5 5 5 4 4 4 4 4 4 4 4 5 5 6 6 7 7 7 6 6 6 5 5 5 5 5
8 9 8 4 1 3 6 8 2 5 6 7 5 6 5 4 5 5 4 3 3 3 3 4 4 4 4 4 4 5 5 5 6 6 7 7 7 7 6 5 5 5 5 5
12 11 8 2 2 2 6 3 5 6 7 6 6 6 6 6 5 4 2 2 2 2 3 3 3 4 4 4 4 4 4 4 5 5 6 6 6 6 6 5 5 5 4 4
8 10 7 2 1 2 5 6 6 7 7 6 6 6 5 5 4 3 1 1 1 2 1 2 3 4 4 4 4 3 3 4 4 4 4 4 5 5 5 5 5 5 5 4
6 5 3 2 3 4 5 6 6 7 7 6 5 5 5 5 3 2 1 1 1 1 1 2 2 3 3 3 3 3 3 3 3 3 3 3 4 5 5 5 5 5 4 4
7 7 6 5 5 5 5 5 7 7 6 5 5 5 5 4 3 2 1 1 1 2 2 2 2 3 3 3 3 3 3 3 3 3 3 3 3 4 5 5 5 5 5 4
9 7 6 5 5 6 6 6 7 7 6 6 5 5 5 3 3 2 2 2 2 2 2 2 2 2 2 2 2 3 3 3 3 3 3 3 4 4 5 5 4 5 5 5
8 7 7 7 6 7 7 7 7 7 7 6 5 5 4 3 3 2 2 2 2 2 2 2 2 2 2 2 3 3 3 3 2 2 2 3 3 2 1 2 2 2 2 2
8 7 8 7 6 6 6 7 7 7 6 6 5 4 3 3 3 2 2 3 3 2 3 3 2 2 2 2 3 3 4 3 2 3 3 3 3 3 3 2 3 3 3 2
7 6 7 6 6 6 6 6 6 5 5 4 4 3 3 3 2 2 3 3 3 2 2 2 2 2 2 2 3 3 4 3 3 3 3 3 3 3 3 3 3 3 3 4
6 7 7 6 5 5 5 4 4 4 4 3 3 2 2 2 3 3 3 3 3 2 2 2 3 3 2 2 3 3 3 3 3 3 3 3 3 3 3 3 3 3 2 3
5 4 4 4 5 5 5 5 5 5 4 3 3 3 3 3 3 2 2 3 3 3 3 3 3 3 2 2 3 2 2 2 3 3 3 3 3 3 3 3 3 3 3 2
5 5 4 5 5 6 6 5 5 5 5 4 4 3 3 3 3 3 3 3 3 4 3 3 3 2 2 2 2 2 2 3 4 3 3 3 3 3 3 3 3 3 3 3
6 6 6 5 5 6 6 6 5 5 4 4 3 3 3 3 3 3 3 3 3 3 3 3 2 2 2 2 2 2 3 3 3 4 3 4 4 4 4 4 4 4 3 3
4 4 5 5 5 6 6 6 5 5 4 3 3 3 4 3 3 3 3 3 3 3 4 3 2 2 2 2 2 3 3 3 3 3 3 3 4 4 4 4 4 4 4 4
4 4 4 4 4 5 5 5 4 4 4 3 3 3 3 3 3 3 3 3 3 3 4 3 3 3 3 2 2 3 3 3 3 3 3 4 4 4 4 4 4 4 4 4
3 3 4 4 4 4 4 4 3 3 3 3 3 3 3 3 3 3 3 3 4 4 4 3 3 3 2 2 2 3 3 3 3 3 3 3 4 4 4 4 4 4 4 4
3 3 3 3 3 3 3 3 3 3 3 3 3 3 3 3 3 3 3 3 4 4 3 3 3 2 2 2 3 3 4 4 4 3 3 3 4 4 4 4 4 4 4 5
3 3 3 3 3 3 4 3 3 3 3 3 3 3 3 3 3 3 4 3 3 4 4 3 3 3 3 3 3 3 3 4 3 3 3 3 4 4 4 5 4 4 4 4
3 3 3 3 3 3 3 3 3 2 3 3 3 3 3 2 3 3 3 4 4 4 4 3 3 3 3 3 2 3 3 3 3 3 3 3 3 3 3 4 4 4 4 5
4 3 3 3 3 3 3 3 2 2 3 2 3 3 3 2 3 3 3 4 4 4 3 3 3 3 3 3 3 3 3 2 2 2 2 2 3 3 3 3 3 3 4 4
4 3 3 4 4 3 2 2 2 2 2 3 3 3 3 2 3 3 3 3 4 3 3 3 3 3 3 3 3 2 2 2 2 2 2 3 3 3 3 3 4 4 4 4
3 3 3 3 3 2 2 2 2 3 3 3 3 3 3 3 3 3 3 3 3 3 2 3 3 3 3 3 2 2 2 2 2 2 2 3 3 3 3 4 4 4 3 4
Wind_Direction
261 269 263 260 254 245 245 251 260 268 270 279 288 291 289 276 248 230 221 212 207 209 210 209 208 212 216 221 222 220 220 224 228 229 228 228 225 225 225 225 228 227 227 226
255 254 257 259 254 248 248 253 257 265 269 279 290 290 287 276 250 236 230 223 214 212 210 213 216 217 217 221 223 223 224 226 225 224 223 225 221 221 221 223 227 225 225 222
259 262 265 254 248 242 239 241 251 259 271 285 281 282 284 284 262 244 239 234 225 219 217 217 219 222 223 224 222 223 226 225 220 217 217 222 220 216 218 221 222 220 220 219
262 257 251 263 294 249 248 252 256 268 283 285 287 288 280 276 269 261 254 248 239 230 224 221 219 223 227 223 222 225 224 223 221 218 218 218 216 217 221 221 218 219 219 220
248 253 260 261 259 249 248 258 273 278 292 303 305 280 259 282 286 279 269 258 247 239 229 221 218 219 220 221 225 232 232 227 223 221 219 218 214 216 219 219 219 222 220 218
240 253 257 268 336 305 260 252 300 303 302 307 301 271 283 332 314 295 281 263 247 228 214 211 213 209 214 221 227 237 240 240 234 226 223 219 218 216 213 213 217 217 219 219
241 250 258 308 346 260 243 295 340 311 302 298 281 292 310 317 309 295 276 258 229 207 199 205 204 205 218 230 241 246 245 244 239 231 227 222 219 211 205 206 210 213 212 215
237 244 250 58 342 263 312 335 328 321 315 302 297 308 312 313 311 299 274 245 211 194 191 195 202 207 222 241 253 254 246 242 238 232 230 222 212 206 204 202 203 205 204 206
245 255 314 313 296 310 320 315 323 319 318 315 310 307 311 310 309 294 272 256 230 190 184 198 209 216 229 252 256 248 238 236 239 231 225 223 211 201 201 204 207 209 206 203
260 257 272 280 287 305 317 314 315 314 312 310 308 308 308 304 298 296 288 280 246 218 221 234 234 239 241 248 245 235 232 229 230 224 219 215 212 207 206 209 211 210 209 206
263 269 273 264 272 293 305 308 308 308 304 301 298 297 297 294 294 297 299 283 260 245 247 256 252 253 261 251 238 234 231 230 230 224 219 213 211 212 212 215 217 214 212 209
264 276 278 285 292 292 291 295 296 296 297 296 290 286 286 290 297 293 297 294 287 279 269 267 260 262 276 265 242 234 236 235 236 227 218 212 208 204 157 204 172 196 214 222
275 285 285 292 294 290 290 296 297 289 283 285 284 271 265 277 288 297 297 297 290 278 271 271 268 273 279 270 249 240 239 241 237 232 220 217 213 211 201 173 161 179 183 198
271 270 274 280 290 295 295 295 296 292 285 277 271 265 259 271 281 290 300 301 294 281 272 272 271 274 278 267 246 244 245 236 232 226 221 217 220 219 213 205 199 199 188 186
266 262 271 283 287 291 295 293 292 292 294 284 275 270 268 273 280 285 297 295 287 289 288 278 275 283 284 263 246 242 241 233 229 225 215 210 213 216 213 214 212 203 197 184
281 273 270 273 281 287 288 290 288 289 287 280 276 271 269 274 284 282 280 280 276 284 293 291 287 294 290 271 259 247 232 222 226 221 207 206 208 213 215 217 217 210 204 212
263 265 268 273 278 282 283 282 281 282 278 273 275 273 267 272 284 294 295 291 283 283 289 294 294 299 291 279 273 259 237 211 212 224 215 209 212 216 215 216 219 223 219 206
256 259 263 267 269 275 281 282 283 282 281 286 280 269 264 263 270 282 287 288 288 287 291 291 296 296 285 278 273 260 243 230 226 226 220 214 215 217 219 220 224 231 237 214
271 274 277 276 279 278 279 279 278 277 279 274 269 272 277 276 277 277 281 283 286 294 300 295 276 258 264 265 257 243 240 232 228 227 223 209 216 222 222 223 226 232 238 235
280 284 284 286 289 287 285 286 281 274 273 271 272 275 277 279 282 286 297 299 299 302 303 300 277 263 259 255 238 247 243 238 233 227 224 222 225 228 227 228 230 234 242 246
288 288 286 286 291 292 291 291 283 278 286 282 269 270 275 279 283 288 296 299 306 318 312 290 269 270 267 263 232 242 235 234 231 227 224 226 230 234 236 236 237 240 246 251
289 284 284 287 295 303 307 306 299 297 301 293 287 289 289 288 292 296 293 293 301 317 308 289 283 289 286 265 248 244 237 233 232 228 225 227 232 237 240 244 243 243 245 250
294 290 290 288 294 304 310 310 308 306 299 293 290 291 296 297 293 287 291 304 308 312 303 291 304 303 285 254 247 242 238 234 233 234 235 233 234 240 243 244 246 248 251 252
300 302 304 300 296 293 299 309 316 313 305 302 300 298 293 296 300 299 297 300 305 299 289 290 288 283 270 257 252 248 241 234 231 232 237 242 244 246 250 250 251 254 258 262
297 298 298 294 290 290 294 302 307 314 317 312 311 311 301 292 287 292 297 300 305 297 293 290 286 280 264 257 247 245 243 239 236 232 230 236 243 248 254 257 260 264 266 266
296 294 291 288 289 286 283 283 285 289 292 295 300 302 303 303 298 295 294 297 298 292 293 290 282 270 264 261 255 250 247 242 236 239 242 245 248 251 257 261 264 264 268 269
290 288 291 293 297 291 280 275 275 279 282 285 293 299 300 300 298 298 295 292 293 288 286 282 276 269 266 258 250 249 250 254 256 257 257 257 258 260 262 265 267 268 270 270
Height
1501 1501 1503 1504 1503 1504 1503 1500 1500 1495 1494 1491 1491 1493 1494 1495 1496 1496 1497 1498 1499 1500 1501 1502 1503 1504 1504 1505 1506 1506 1507 1508 1508 1509 1509 1510 1510 1511 1511 1512 1513 1513 1514 1514
1503 1502 1502 1502 1499 1498 1499 1497 1495 1493 1491 1489 1491 1493 1493 1493 1494 1494 1495 1496 1496 1497 1498 1498 1500 1500 1501 1502 1502 1503 1503 1504 1504 1505 1505 1506 1506 1507 1507 1508 1508 1509 1510 1510
1501 1499 1501 1498 1491 1491 1492 1491 1492 1491 1488 1488 1490 1491 1491 1491 1491 1492 1492 1493 1493 1494 1495 1495 1496 1497 1498 1498 1499 1499 1500 1500 1501 1501 1501 1502 1502 1502 1503 1503 1504 1505 1505 1506
1501 1501 1504 1488 1486 1487 1488 1488 1489 1488 1488 1489 1489 1489 1489 1489 1489 1489 1490 1490 1491 1491 1492 1493 1493 1494 1495 1495 1496 1496 1496 1497 1497 1497 1498 1498 1498 1499 1499 1500 1500 1501 1502 1502
1501 1499 1491 1487 1487 1488 1488 1487 1488 1488 1488 1488 1488 1486 1486 1487 1487 1487 1487 1487 1488 1488 1489 1489 1490 1491 1491 1492 1493 1493 1493 1493 1493 1494 1494 1494 1494 1495 1496 1496 1497 1497 1498 1499
1501 1501 1495 1486 1487 1488 1489 1486 1487 1488 1487 1487 1486 1483 1482 1484 1484 1484 1484 1484 1484 1485 1485 1486 1487 1488 1488 1489 1489 1489 1489 1489 1490 1490 1490 1490 1491 1492 1492 1493 1493 1494 1494 1495
1496 1494 1487 1486 1489 1489 1490 1486 1488 1487 1487 1486 1485 1484 1484 1482 1482 1481 1481 1481 1481 1482 1482 1483 1484 1484 1485 1486 1486 1486 1486 1486 1486 1486 1487 1487 1487 1488 1489 1489 1490 1490 1491 1491
1493 1494 1490 1488 1489 1489 1488 1488 1488 1487 1486 1485 1483 1482 1481 1480 1479 1479 1479 1479 1479 1479 1479 1480 1481 1481 1482 1482 1483 1482 1482 1482 1482 1482 1483 1483 1483 1484 1485 1485 1486 1487 1487 1487
1489 1489 1488 1489 1489 1490 1489 1488 1487 1486 1485 1484 1482 1481 1480 1479 1478 1477 1477 1477 1477 1477 1477 1478 1478 1479 1479 1479 1479 1479 1479 1479 1479 1479 1479 1479 1480 1480 1481 1481 1482 1483 1483 1483
1488 1486 1488 1488 1488 1488 1487 1487 1486 1485 1484 1482 1481 1479 1478 1477 1476 1476 1475 1475 1475 1475 1475 1475 1476 1476 1476 1476 1476 1476 1476 1475 1476 1476 1476 1476 1476 1477 1477 1478 1478 1478 1479 1480
1485 1485 1486 1486 1486 1486 1485 1485 1484 1483 1482 1480 1479 1478 1476 1475 1474 1474 1473 1473 1473 1472 1473 1473 1473 1473 1473 1473 1473 1473 1473 1473 1472 1473 1472 1472 1472 1473 1473 1474 1474 1475 1475 1476
1482 1483 1484 1483 1483 1483 1483 1482 1481 1480 1478 1477 1476 1475 1474 1473 1472 1472 1471 1471 1470 1470 1470 1470 1470 1470 1470 1470 1470 1470 1470 1470 1470 1469 1469 1469 1469 1469 1469 1470 1470 1471 1472 1473
1483 1483 1483 1482 1481 1481 1480 1479 1478 1477 1475 1474 1473 1472 1471 1471 1470 1469 1469 1468 1468 1467 1467 1468 1468 1468 1467 1467 1467 1467 1467 1467 1467 1466 1466 1466 1466 1466 1466 1466 1467 1468 1468 1469
1481 1481 1480 1479 1479 1478 1477 1476 1475 1473 1472 1472 1471 1470 1469 1468 1467 1467 1466 1466 1466 1465 1465 1465 1465 1465 1465 1464 1464 1464 1464 1464 1464 1463 1463 1463 1463 1463 1463 1463 1464 1464 1465 1466
1478 1478 1477 1476 1475 1475 1474 1473 1472 1471 1470 1469 1468 1467 1466 1465 1465 1464 1464 1464 1463 1463 1463 1462 1462 1462 1462 1461 1461 1461 1461 1461 1461 1461 1461 1461 1461 1460 1460 1461 1461 1461 1462 1462
1474 1474 1474 1473 1472 1472 1471 1470 1469 1468 1467 1466 1465 1464 1464 1463 1462 1462 1462 1461 1461 1460 1460 1459 1459 1459 1459 1458 1458 1458 1458 1458 1458 1458 1458 1458 1458 1458 1458 1458 1458 1458 1459 1459
1471 1471 1470 1470 1469 1469 1468 1467 1466 1465 1464 1463 1462 1462 1461 1461 1460 1459 1459 1459 1458 1458 1457 1457 1456 1456 1455 1455 1455 1455 1454 1454 1455 1455 1455 1455 1455 1456 1455 1455 1456 1456 1456 1456
1468 1468 1468 1467 1466 1465 1464 1464 1463 1462 1461 1460 1460 1459 1459 1458 1457 1456 1456 1456 1455 1455 1454 1454 1453 1453 1452 1452 1452 1451 1451 1451 1452 1452 1452 1452 1452 1452 1452 1453 1453 1453 1453 1453
1465 1465 1464 1463 1462 1462 1461 1460 1460 1459 1458 1458 1457 1456 1456 1455 1454 1453 1453 1453 1452 1452 1451 1451 1450 1449 1449 1449 1448 1448 1448 1448 1448 1448 1448 1449 1449 1449 1449 1449 1450 1450 1450 1450
1461 1461 1461 1460 1459 1458 1458 1457 1456 1456 1455 1455 1454 1453 1452 1452 1452 1451 1450 1450 1449 1449 1448 1448 1447 1446 1446 1445 1445 1445 1445 1445 1445 1445 1445 1445 1445 1446 1446 1446 1446 1446 1446 1447
1459 1458 1457 1457 1456 1455 1455 1454 1453 1452 1452 1451 1451 1450 1449 1449 1449 1448 1447 1447 1447 1446 1445 1444 1443 1443 1442 1442 1441 1441 1441 1441 1441 1442 1442 1442 1442 1443 1443 1443 1443 1443 1443 1443
1456 1455 1455 1454 1453 1452 1452 1451 1451 1450 1449 1448 1448 1448 1447 1446 1446 1445 1445 1444 1444 1443 1442 1441 1440 1439 1439 1438 1438 1438 1438 1438 1438 1438 1439 1439 1439 1439 1439 1439 1439 1439 1439 1439
1453 1453 1452 1452 1451 1450 1449 1449 1448 1447 1447 1446 1445 1445 1444 1444 1443 1442 1441 1441 1440 1439 1438 1437 1436 1436 1435 1435 1435 1434 1434 1434 1435 1435 1435 1436 1436 1436 1435 1435 1435 1435 1435 1435
1451 1450 1450 1449 1448 1447 1446 1446 1446 1445 1444 1443 1443 1442 1442 1441 1440 1440 1439 1438 1437 1436 1435 1434 1433 1432 1432 1431 1431 1431 1431 1431 1431 1432 1432 1432 1432 1432 1432 1432 1431 1431 1431 1430
1448 1448 1447 1446 1446 1445 1444 1443 1443 1442 1441 1441 1440 1440 1439 1438 1437 1436 1436 1435 1433 1432 1431 1430 1430 1429 1428 1428 1428 1428 1428 1428 1428 1428 1429 1429 1429 1428 1428 1428 1427 1427 1426 1426
1446 1445 1444 1444 1443 1442 1441 1440 1440 1439 1439 1438 1437 1437 1436 1435 1434 1433 1432 1431 1430 1429 1428 1427 1426 1426 1425 1425 1424 1424 1424 1425 1425 1425 1425 1425 1425 1424 1424 1423 1423 1422 1422 1422
1443 1442 1441 1441 1440 1439 1439 1438 1437 1437 1436 1435 1434 1433 1432 1431 1430 1429 1428 1427 1426 1425 1424 1424 1423 1422 1422 1421 1421 1421 1421 1421 1421 1421 1421 1421 1420 1420 1420 1420 1419 1419 1418 1418